Wind_Speed
26 23 18 16 13 10 6 4 8 5 4 2 3 5 8 10 10 14 14 16 13 14 16 16 13 10 10 10 16 26 28 31 33 36 41 44 45 44 48 51 57 53 51 52 51 44 48 51 53
23 23 21 19 16 14 10 9 3 7 4 2 2 3 6 6 9 11 14 14 16 14 15 17 15 15 15 15 14 15 24 26 22 26 28 34 40 44 45 49 56 57 61 63 56 49 50 51 56
21 23 23 21 16 12 12 10 4 4 1 1 1 1 3 5 4 8 10 9 12 11 13 13 16 15 19 18 15 13 13 18 23 25 24 25 30 37 44 46 50 53 61 59 62 61 61 60 58
18 18 21 21 18 10 9 9 5 2 2 2 1 1 1 2 4 7 7 8 9 11 9 13 13 14 17 18 16 12 12 12 14 21 26 25 25 25 26 30 39 47 51 59 67 67 67 63 64
17 17 18 19 19 15 8 7 7 4 2 3 4 3 3 4 3 2 1 3 5 4 4 8 8 10 11 17 12 14 9 16 14 13 14 28 25 21 22 23 28 35 37 43 53 61 70 73 69
17 15 17 18 18 15 9 2 3 3 1 3 4 5 2 3 3 4 2 1 2 1 2 4 7 8 8 11 11 10 9 7 11 10 12 17 27 29 22 13 16 22 24 30 35 45 52 60 70
19 19 18 18 17 15 12 9 8 7 6 6 6 8 8 7 8 8 7 6 5 5 3 3 3 7 6 6 7 6 6 6 8 9 14 8 19 13 17 26 16 15 23 27 26 37 35 42 50
23 21 21 21 19 18 15 13 13 13 13 13 12 12 13 13 13 12 12 11 10 9 9 8 8 9 8 8 9 10 11 8 9 12 10 9 7 9 14 17 17 10 17 33 17 27 32 35 44
29 26 24 22 21 20 19 18 14 14 14 15 15 15 16 15 15 17 16 15 15 14 12 12 11 11 12 12 13 15 16 17 15 14 14 15 14 15 14 15 17 15 15 26 28 19 26 20 39
30 31 29 26 26 25 23 20 18 14 13 14 15 16 16 16 17 18 19 19 19 18 16 16 15 16 18 16 18 20 19 22 21 21 19 20 22 24 26 22 25 21 20 27 19 29 27 30 23
32 31 33 33 30 28 27 24 22 19 18 12 14 16 16 18 19 19 20 21 23 22 21 20 18 18 20 21 22 22 22 23 24 26 25 25 26 27 28 30 30 31 31 33 39 39 29 36 37
32 31 33 33 34 34 32 29 29 23 26 20 20 18 17 18 20 23 23 22 25 26 27 25 23 23 22 25 26 27 26 27 27 29 28 29 30 31 31 33 35 36 38 41 44 45 45 47 49
35 33 34 34 37 38 38 35 34 29 30 29 27 24 26 22 22 22 23 27 27 27 28 29 28 28 28 30 30 32 32 33 32 33 33 35 35 37 36 39 39 40 44 47 48 50 51 53 55
35 36 36 36 38 38 42 40 38 37 34 32 35 32 28 27 26 26 24 27 30 31 30 31 32 32 32 34 35 37 38 37 38 39 39 38 40 41 42 43 45 46 49 52 53 56 58 59 60
28 28 31 38 36 38 38 37 42 44 39 36 35 36 34 30 31 31 30 30 31 33 33 35 34 35 36 37 40 40 41 43 44 46 47 48 49 49 49 48 48 51 55 57 59 60 62 63 65
30 27 28 36 35 37 34 32 41 43 43 43 41 39 38 37 35 34 32 37 34 34 33 35 34 35 36 38 39 42 42 44 46 48 50 51 54 56 56 55 54 57 61 61 63 64 67 69 71
38 32 34 34 35 31 31 35 45 40 44 48 47 45 41 41 38 36 37 36 40 38 35 35 35 36 39 40 41 43 45 47 48 49 51 51 53 55 57 60 60 63 65 64 66 70 73 75 77
40 37 36 35 38 28 25 31 46 40 39 46 52 51 45 41 42 42 41 39 41 40 37 36 38 40 43 45 46 49 50 49 50 50 52 52 53 54 57 59 64 66 65 67 71 75 78 80 81
43 41 39 39 40 25 29 26 36 43 39 43 48 54 52 48 48 40 45 41 41 40 39 38 41 44 46 48 52 53 52 49 47 47 48 51 55 58 60 61 61 63 67 71 75 78 82 85 86
45 45 45 43 45 34 30 27 32 39 42 45 50 53 54 54 48 40 43 44 41 41 42 43 46 46 49 52 55 57 52 48 46 48 53 56 57 59 60 63 65 69 74 75 79 83 85 88 91
51 47 48 46 52 42 40 26 31 38 43 49 53 53 55 51 45 40 44 43 43 42 44 48 49 48 50 53 57 56 51 49 51 54 55 56 59 61 62 65 68 73 75 81 85 89 92 95 99
55 57 52 46 46 40 43 36 30 37 36 41 48 58 59 53 52 52 46 50 50 50 51 49 49 50 50 54 57 57 55 54 55 56 56 60 63 67 68 71 74 76 81 86 92 97 100 103 106
58 59 59 54 50 41 39 41 37 43 40 44 50 55 62 60 61 60 59 58 57 55 51 52 53 51 52 55 60 64 61 59 59 61 65 66 71 75 76 77 80 84 86 91 96 101 106 107 107
69 64 62 58 52 38 41 49 35 43 43 46 48 52 58 58 63 65 65 65 63 61 58 55 54 54 56 60 62 69 73 71 67 69 74 78 79 80 84 86 90 93 95 99 103 108 108 108 108
74 66 66 65 60 50 51 46 37 47 51 53 53 59 60 61 59 64 68 67 68 65 63 61 61 61 61 64 67 72 78 81 77 75 77 81 84 86 89 93 96 99 102 103 104 107 107 109 109
83 80 78 78 67 56 55 44 44 52 54 56 60 63 65 67 66 68 73 74 73 70 69 68 68 68 69 70 73 75 77 84 87 87 85 83 86 90 95 99 101 103 103 103 104 108 107 106 106
89 94 90 88 76 71 56 58 56 57 59 58 60 65 68 72 71 73 72 77 80 76 74 73 74 76 77 78 78 78 81 87 90 89 90 94 97 97 98 99 102 103 105 107 108 106 105 101 103
113 105 103 97 86 80 58 68 61 59 65 63 65 67 71 74 77 77 77 76 79 81 82 82 82 82 82 81 83 83 86 90 91 93 97 99 100 101 106 108 110 109 109 110 108 102 98 96 101
103 99 100 99 92 89 84 69 63 65 69 71 74 74 77 79 80 77 77 79 82 84 86 87 87 86 89 89 90 92 94 95 96 98 102 105 106 105 110 114 113 112 112 108 102 96 95 95 97
98 96 102 106 99 102 96 53 67 72 74 78 80 83 85 83 82 79 82 81 83 89 90 90 91 90 93 94 93 94 96 99 103 105 108 107 109 111 114 114 114 115 110 104 99 96 94 94 97
Wind_Direction
19 17 14 19 27 27 16 297 281 265 246 200 138 119 112 86 92 90 107 97 112 124 128 139 155 203 218 190 207 221 223 225 224 228 232 236 236 234 236 234 228 226 234 242 252 257 250 246 249
17 13 12 10 10 30 28 16 305 260 274 267 165 118 117 85 78 82 90 94 110 112 119 133 127 133 160 169 171 198 218 219 225 226 231 233 236 237 234 234 236 237 234 239 236 233 246 252 252
11 8 6 10 10 28 38 40 22 286 266 276 322 164 123 126 86 86 89 91 101 115 134 136 148 154 154 161 160 182 197 218 222 222 227 227 232 239 239 236 237 240 237 238 235 240 241 249 252
360 5 2 3 8 6 25 60 50 356 336 314 266 216 73 58 80 109 103 111 122 105 114 118 148 134 166 169 165 154 160 170 203 223 226 229 230 235 235 243 243 244 241 239 238 238 240 244 248
341 352 358 355 360 2 19 39 50 44 356 354 6 20 21 1 353 7 68 70 99 100 102 140 120 133 136 172 158 171 168 181 182 195 207 213 212 205 219 237 244 249 250 251 246 244 244 247 247
324 331 339 346 345 349 348 1 54 64 43 277 280 289 304 296 309 319 304 2 145 137 136 160 165 171 174 181 186 193 204 194 196 189 193 207 219 221 230 247 255 255 253 249 249 245 247 249 251
306 312 317 321 331 331 327 298 280 279 277 271 278 278 269 261 266 271 279 282 283 287 283 258 215 206 216 228 198 216 211 220 238 214 197 167 218 219 235 240 249 219 229 241 243 240 242 243 248
287 292 299 306 312 318 315 308 290 284 278 276 271 272 272 271 266 268 271 269 275 287 292 290 291 263 256 259 272 272 275 274 273 269 275 260 244 236 247 213 238 255 229 226 227 235 237 253 247
282 282 283 288 297 299 302 298 296 278 275 275 274 267 267 267 270 269 270 273 271 268 280 280 279 272 271 270 271 278 282 284 282 282 280 272 286 295 289 290 284 293 244 238 241 259 239 288 237
277 276 276 276 282 287 288 291 285 283 271 273 274 270 267 265 269 272 276 270 270 273 272 285 286 293 292 283 278 274 281 287 282 281 280 284 285 286 295 301 303 309 308 307 303 261 264 274 276
280 273 272 273 270 270 276 280 280 273 270 262 274 278 277 272 272 271 274 275 272 273 272 283 277 286 293 290 285 285 286 289 287 282 279 285 289 288 292 293 295 300 305 305 309 312 304 305 302
289 277 272 272 272 269 266 268 272 268 267 267 267 271 278 284 280 277 273 273 274 276 277 281 281 284 286 290 289 287 290 290 293 289 286 288 286 290 292 289 293 295 300 302 306 304 308 308 308
292 287 284 275 270 269 270 269 267 262 264 267 270 265 271 273 278 276 274 272 273 272 275 274 276 276 281 287 285 283 285 287 289 293 294 291 288 290 291 290 291 291 295 298 299 302 303 303 302
288 289 287 282 277 273 271 272 269 273 261 261 268 269 266 271 270 272 270 269 268 271 274 275 275 274 278 288 287 282 281 285 288 290 291 294 288 290 288 290 290 290 293 296 298 300 299 299 299
293 294 295 293 289 281 279 270 267 278 270 265 263 265 269 265 269 268 269 267 267 271 272 276 278 277 281 288 290 288 285 286 287 286 285 288 290 290 290 290 284 283 289 293 296 297 296 295 297
292 299 302 298 297 285 288 271 266 268 278 270 264 264 267 270 272 270 267 267 266 269 274 279 280 277 282 286 290 292 291 289 287 286 285 284 284 286 290 289 287 286 288 291 293 294 294 295 297
293 293 298 301 296 299 290 290 277 269 267 273 270 269 268 271 275 272 270 269 268 268 273 278 278 278 279 282 286 289 291 291 290 288 286 286 285 285 286 286 287 287 288 289 290 292 294 294 295
288 290 293 296 293 307 296 280 286 282 275 268 267 267 269 270 274 280 271 269 270 270 273 276 279 278 279 280 284 289 293 293 289 287 287 287 286 286 285 286 287 286 287 287 289 292 294 294 293
288 289 289 285 291 291 295 292 287 288 279 272 273 273 273 274 276 275 276 276 269 269 270 275 281 281 282 284 285 288 294 293 290 288 287 288 288 289 288 288 288 288 287 291 294 295 295 294 294
285 287 288 285 284 285 288 296 284 281 283 279 274 277 277 275 276 276 274 276 273 267 270 275 284 281 282 284 285 286 290 289 288 288 291 291 292 292 289 288 289 291 294 295 293 294 294 293 294
290 287 282 282 281 280 280 286 286 281 280 285 285 283 280 281 283 277 278 277 275 271 274 281 283 281 282 283 283 284 286 287 286 289 290 291 291 293 293 293 294 293 295 295 295 295 295 296 295
287 284 281 281 283 280 282 274 277 278 281 285 286 288 287 290 287 284 279 281 279 278 281 281 281 282 282 281 283 284 284 284 284 284 287 291 295 294 293 296 295 294 293 294 295 297 297 297 295
285 281 280 279 277 277 283 274 260 272 275 279 279 283 283 289 289 290 290 287 283 283 282 280 281 279 280 285 286 285 285 284 284 287 290 290 295 296 294 295 296 294 293 294 294 295 297 297 297
284 281 279 279 277 275 274 271 268 269 271 271 273 269 273 273 279 284 284 284 284 284 283 281 281 281 283 284 283 286 288 286 284 287 290 290 294 295 295 295 294 295 295 296 297 298 298 298 298
281 284 284 281 277 274 270 272 274 266 267 269 269 272 275 274 276 276 278 279 280 280 280 281 282 282 283 283 283 285 288 289 289 287 288 290 293 295 296 296 296 295 295 297 297 299 299 300 300
283 284 284 279 277 272 272 274 270 266 268 268 270 274 274 272 272 273 275 277 277 278 279 280 281 280 281 282 284 283 284 286 288 290 290 290 292 294 296 296 297 298 298 298 300 301 301 300 298
284 289 280 278 277 271 269 273 275 268 267 271 274 275 276 273 270 270 271 273 274 275 276 278 279 281 283 284 282 281 281 280 283 287 290 292 292 292 293 296 299 300 300 301 302 300 299 298 295
283 283 276 279 277 278 276 271 273 271 270 268 272 270 272 273 271 270 269 270 272 274 276 278 280 281 281 279 280 280 280 280 280 284 288 289 291 294 296 299 300 299 301 301 301 300 298 296 293
275 272 269 271 273 276 272 269 277 279 280 275 274 272 272 272 274 273 275 274 273 274 275 277 278 280 281 281 282 282 282 285 284 286 288 288 290 295 297 297 298 299 299 300 301 299 298 297 295
272 269 267 268 270 267 269 284 276 275 272 272 274 275 275 273 273 271 269 272 274 276 278 278 279 280 280 281 283 284 285 286 286 286 290 291 293 294 296 296 297 298 300 300 300 299 297 297 296
Height
10822 10819 10817 10815 10814 10811 10808 10807 10806 10805 10804 10803 10802 10801 10800 10799 10799 10799 10797 10797 10797 10797 10797 10799 10800 10801 10804 10806 10807 10810 10811 10815 10817 10819 10822 10824 10827 10830 10833 10837 10840 10842 10845 10846 10846 10847 10850 10854 10855
10822 10819 10816 10814 10812 10811 10808 10806 10805 10804 10804 10803 10802 10801 10800 10799 10799 10799 10799 10798 10798 10798 10797 10798 10799 10800 10801 10802 10804 10806 10807 10809 10813 10815 10817 10818 10819 10821 10824 10827 10830 10832 10835 10837 10841 10844 10844 10845 10847
10822 10819 10816 10814 10812 10810 10808 10807 10805 10803 10803 10803 10802 10802 10801 10800 10799 10799 10799 10799 10798 10799 10798 10798 10799 10799 10800 10801 10802 10802 10804 10806 10809 10810 10812 10813 10814 10816 10818 10819 10822 10825 10827 10830 10833 10835 10837 10838 10839
10822 10820 10817 10814 10812 10810 10809 10806 10805 10804 10803 10802 10802 10802 10802 10802 10800 10800 10800 10800 10799 10799 10800 10799 10799 10799 10799 10799 10801 10802 10802 10803 10804 10806 10807 10809 10810 10812 10813 10814 10815 10815 10817 10822 10824 10829 10831 10831 10832
10821 10818 10816 10814 10812 10809 10807 10807 10805 10804 10804 10804 10803 10803 10802 10801 10801 10801 10800 10800 10801 10801 10800 10800 10799 10799 10799 10798 10799 10800 10800 10801 10802 10803 10804 10804 10805 10806 10808 10809 10810 10809 10812 10815 10816 10821 10822 10821 10823
10820 10817 10815 10813 10811 10810 10808 10807 10806 10805 10805 10804 10803 10802 10802 10801 10801 10801 10800 10800 10800 10799 10799 10800 10800 10799 10799 10798 10798 10798 10799 10800 10800 10800 10800 10800 10801 10803 10804 10806 10806 10804 10806 10806 10808 10809 10813 10814 10813
10817 10816 10814 10813 10810 10809 10807 10806 10805 10804 10804 10803 10802 10801 10800 10799 10799 10799 10799 10798 10798 10798 10797 10797 10797 10798 10797 10797 10797 10797 10798 10798 10797 10797 10797 10796 10798 10799 10800 10800 10801 10799 10799 10801 10801 10803 10803 10803 10803
10813 10812 10811 10810 10808 10806 10805 10803 10802 10802 10801 10800 10799 10799 10798 10797 10796 10795 10795 10795 10795 10795 10795 10794 10794 10794 10794 10795 10794 10794 10794 10793 10793 10794 10792 10793 10793 10793 10795 10794 10794 10792 10791 10793 10793 10794 10795 10794 10795
10807 10807 10807 10806 10805 10803 10801 10800 10799 10798 10797 10797 10796 10795 10794 10794 10793 10792 10792 10791 10791 10791 10792 10792 10792 10793 10792 10791 10791 10790 10790 10790 10789 10789 10789 10789 10788 10788 10788 10785 10787 10784 10785 10787 10786 10786 10787 10786 10785
10800 10800 10799 10800 10800 10799 10798 10797 10796 10794 10793 10793 10792 10791 10790 10790 10789 10788 10788 10787 10787 10787 10787 10787 10786 10786 10786 10785 10785 10785 10784 10785 10784 10784 10783 10782 10781 10780 10778 10778 10777 10777 10776 10777 10777 10780 10776 10776 10777
10793 10793 10792 10792 10792 10792 10792 10791 10790 10791 10788 10789 10788 10786 10786 10785 10784 10783 10783 10783 10783 10782 10783 10782 10782 10781 10780 10779 10778 10778 10777 10777 10776 10776 10775 10775 10773 10771 10770 10769 10767 10766 10766 10767 10764 10761 10764 10763 10762
10786 10787 10785 10785 10784 10784 10784 10784 10783 10785 10783 10783 10783 10782 10780 10779 10778 10777 10777 10776 10776 10776 10776 10776 10775 10775 10774 10773 10773 10772 10771 10771 10769 10767 10766 10765 10764 10762 10761 10760 10759 10756 10755 10754 10751 10751 10748 10748 10745
10779 10778 10776 10777 10776 10776 10775 10776 10775 10775 10776 10776 10775 10776 10773 10773 10773 10771 10770 10769 10769 10769 10768 10768 10767 10767 10767 10766 10764 10764 10763 10761 10761 10760 10758 10756 10754 10752 10750 10749 10747 10746 10745 10741 10739 10737 10735 10734 10732
10772 10771 10769 10768 10768 10768 10767 10767 10767 10763 10768 10768 10767 10766 10767 10765 10765 10764 10764 10762 10762 10760 10761 10760 10759 10759 10758 10757 10756 10755 10754 10752 10751 10750 10749 10747 10745 10743 10740 10739 10736 10733 10731 10729 10727 10725 10723 10720 10717
10767 10766 10764 10758 10760 10759 10757 10758 10756 10751 10757 10758 10758 10757 10757 10758 10757 10756 10757 10755 10754 10753 10753 10751 10751 10750 10749 10748 10747 10746 10744 10743 10742 10740 10738 10736 10734 10732 10730 10727 10725 10722 10719 10717 10714 10713 10710 10706 10704
10760 10761 10760 10752 10752 10752 10751 10750 10744 10746 10745 10745 10747 10747 10747 10746 10747 10747 10749 10746 10746 10745 10745 10743 10742 10742 10740 10738 10736 10734 10733 10732 10730 10728 10726 10724 10723 10721 10718 10715 10712 10709 10706 10704 10701 10698 10695 10692 10690
10753 10756 10753 10750 10743 10746 10745 10742 10729 10738 10737 10734 10733 10735 10737 10736 10737 10740 10739 10738 10736 10737 10737 10735 10733 10732 10730 10728 10726 10724 10723 10721 10718 10716 10713 10712 10709 10708 10704 10701 10698 10695 10693 10690 10686 10683 10680 10677 10673
10748 10749 10747 10741 10738 10743 10738 10736 10722 10725 10729 10724 10721 10723 10725 10727 10727 10728 10728 10728 10726 10727 10726 10725 10723 10721 10720 10717 10716 10713 10711 10710 10706 10704 10702 10700 10696 10694 10691 10689 10685 10681 10678 10674 10672 10668 10664 10660 10655
10738 10738 10739 10733 10727 10736 10731 10731 10719 10710 10717 10715 10708 10706 10711 10713 10714 10719 10713 10716 10717 10716 10715 10714 10712 10710 10708 10705 10702 10700 10698 10697 10693 10691 10689 10686 10682 10679 10676 10673 10670 10666 10663 10660 10655 10650 10644 10639 10637
10727 10728 10727 10728 10721 10724 10725 10727 10717 10707 10700 10698 10697 10695 10695 10696 10702 10706 10703 10702 10704 10704 10703 10702 10699 10697 10694 10691 10688 10685 10684 10682 10680 10678 10675 10671 10667 10665 10662 10659 10655 10651 10647 10640 10633 10628 10623 10616 10611
10714 10716 10715 10716 10709 10718 10715 10720 10709 10704 10698 10690 10680 10681 10678 10682 10688 10693 10690 10690 10691 10691 10691 10689 10687 10685 10682 10676 10671 10669 10668 10667 10665 10662 10658 10655 10651 10648 10645 10641 10638 10633 10627 10621 10614 10606 10599 10592 10583
10708 10696 10701 10702 10701 10705 10705 10713 10704 10695 10694 10686 10676 10662 10661 10669 10669 10671 10679 10676 10676 10677 10678 10675 10673 10671 10667 10661 10654 10652 10651 10651 10648 10644 10641 10637 10634 10631 10626 10622 10618 10612 10606 10599 10591 10580 10572 10568 10559
10695 10687 10683 10686 10688 10693 10694 10692 10699 10688 10687 10678 10669 10662 10652 10652 10649 10654 10655 10658 10659 10659 10660 10659 10657 10654 10651 10646 10639 10633 10633 10634 10632 10628 10624 10618 10615 10610 10607 10603 10598 10591 10584 10576 10566 10555 10546 10537 10528
10668 10672 10670 10670 10674 10684 10679 10670 10691 10681 10678 10668 10663 10655 10648 10649 10651 10643 10643 10641 10639 10641 10643 10642 10641 10639 10635 10629 10624 10615 10609 10611 10613 10609 10605 10599 10595 10589 10586 10582 10576 10567 10559 10552 10543 10531 10520 10510 10500
10648 10654 10653 10656 10658 10670 10662 10663 10673 10666 10661 10659 10652 10641 10642 10635 10635 10634 10629 10629 10626 10625 10625 10625 10624 10623 10619 10614 10609 10602 10589 10583 10589 10589 10584 10578 10572 10567 10562 10555 10549 10541 10534 10528 10519 10507 10493 10483 10472
10638 10633 10634 10626 10638 10653 10648 10658 10656 10648 10642 10641 10639 10631 10629 10622 10621 10620 10617 10612 10609 10609 10608 10608 10607 10603 10599 10596 10592 10585 10579 10568 10561 10561 10559 10555 10549 10543 10537 10530 10522 10515 10508 10499 10491 10481 10469 10458 10447
10619 10620 10611 10598 10617 10620 10642 10641 10639 10632 10626 10625 10621 10611 10608 10603 10602 10599 10602 10598 10595 10593 10590 10590 10587 10585 10584 10580 10573 10568 10562 10552 10545 10540 10532 10527 10523 10518 10511 10503 10496 10487 10479 10471 10463 10453 10443 10435 10420
10587 10589 10584 10583 10585 10593 10627 10615 10620 10618 10611 10610 10604 10594 10585 10581 10582 10582 10583 10582 10576 10573 10572 10570 10568 10566 10563 10558 10552 10548 10538 10530 10529 10521 10511 10503 10497 10490 10483 10475 10467 10459 10451 10443 10435 10424 10413 10406 10393
10558 10558 10562 10556 10560 10565 10574 10604 10604 10601 10596 10588 10580 10573 10566 10561 10560 10563 10565 10561 10557 10555 10550 10548 10546 10545 10538 10533 10529 10524 10517 10508 10504 10498 10489 10482 10474 10465 10455 10447 10439 10432 10424 10415 10406 10396 10387 10378 10368
10532 10537 10531 10528 10541 10525 10535 10591 10588 10573 10569 10563 10557 10549 10538 10542 10541 10545 10539 10539 10540 10532 10526 10525 10523 10520 10514 10509 10506 10499 10493 10484 10476 10471 10463 10456 10447 10440 10430 10421 10411 10404 10396 10387 10380 10370 10362 10354 10342